Starlink 5957

operational
NORAD ID: 55995 Int'l Des: 2023-042 Owner: SPXS Country: US Constellation: starlink
LEOCIRCULAR

Über Starlink 5957

Beschreibung wird geladen...

Live-Position

3D-Globus wird geladen...

Nächste Überflüge

Höhenverlauf

Altitude vs Time

uPlot chart will show altitude changes over time

Zweizeiliger Elementsatz

1 55995U 23042K 25351.78804816 .00653851 22566-3 73505-3 0 9997
2 55995 42.9898 118.2898 0003852 223.6529 136.4048 16.08486018150856
Epoch: 17. Dez. 2025 • Age: 16 hours

Aktueller Status

Höhe 256.5 km
Geschwindigkeit 7.75 km/s
Subsatellitenpunkt -31.26°S, 179.86°E
Startdatum 24. März 2023
Alter 2.7 years
Typ internet

Technische Details

Klassifizierung Payload
Masse 305.00 kg
Trockenmasse 290.00 kg
Gesamtmasse 305.00 kg
Länge 0.20 m
Durchmesser 2.80 m
Spannweite 9.00 m
Form Box + pan
Hersteller SPXS
Bus-Typ Starlink
Phasenstatus In Orbit
Besitzer/Staat SPXS/US

Große Konstellationen

Loading constellations...